Flag for U.S.A. Weather past 2 weeks in Minot, North Dakota, U.S.A.

Now
68 °F

Overcast.


Feels Like: 68 °F
Forecast: 62 / 79 °F
Wind: 14 mph from East

Location: Minot International Airport

Current Time: Jul 23, 2014 at 11:29:14 AM

Latest Report: Jul 23, 2014 at 10:54 AM


Visibility: 10 mi

Pressure: 30.26 "Hg

Humidity: 84%

Dew point: 63 °F

Location of MinotLocation

Historic Weather in Minot — Graph

°F

Minot temperature yesterday

Maximum temperature yesterday: 77 °F (at 6:54 PM)
Minimum temperature yesterday: 59 °F (at 5:54 AM)
Average temperature yesterday: 66 °F

Past Weeks' High & Low Weather Summary

 TemperatureHumidityPressure
High90 °F (Jul 20, 1:54 PM)100% (Jul 16, 9:54 AM)30.32 "Hg (Jul 16, 9:54 AM)
Low49 °F (Jul 15, 5:54 AM)28% (Jul 20, 1:54 PM)29.55 "Hg (Jul 20, 3:54 AM)
Average68 °F65%29.94 "Hg
* Reported Jul 8 9:54 AM — Jul 23 9:54 AM, Minot, Weather by CustomWeather, © 2014

Note: Actual official high and low records may vary slightly from our data, if they occured in-between our weather recording intervals... More about our weather records

Advertising

Minot weather history for July 14, 2014

 ConditionsComfort  
Time TempWeatherWind HumidityBarometerVisibility
12:54 AM
Jul 14
56 °FPassing clouds.12 mph65%30.12 "Hg10 mi
1:54 AM54 °FClear.14 mph69%30.14 "Hg10 mi
2:54 AM52 °FClear.10 mph77%30.15 "Hg10 mi
3:54 AM52 °FPassing clouds.13 mph77%30.17 "Hg10 mi
4:54 AM50 °FPassing clouds.9 mph86%30.19 "Hg10 mi
5:54 AM50 °FPassing clouds.12 mph86%30.21 "Hg10 mi
6:54 AM53 °FPassing clouds.13 mph83%30.23 "Hg10 mi
7:54 AM54 °FPassing clouds.14 mph80%30.24 "Hg10 mi
9:01 AM57 °FPartly sunny.17 mph69%30.26 "Hg10 mi
10:01 AM60 °FScattered clouds.14 mph62%30.28 "Hg10 mi
10:54 AM60 °FPartly sunny.17 mph58%30.30 "Hg10 mi
11:54 AM62 °FPassing clouds.15 mph56%30.31 "Hg10 mi
12:54 PM63 °FPartly sunny.13 mph54%30.32 "Hg10 mi
1:54 PM64 °FOvercast.16 mph56%30.32 "Hg10 mi
2:54 PM65 °FMostly cloudy.12 mph56%30.32 "Hg10 mi
3:54 PM68 °FPassing clouds.10 mph49%30.31 "Hg10 mi
4:54 PM66 °FOvercast.9 mph52%30.31 "Hg10 mi
5:54 PM69 °FPartly sunny.8 mph47%30.29 "Hg10 mi
6:54 PM68 °FSunny.10 mph49%30.28 "Hg10 mi
7:54 PM67 °FSunny.8 mph51%30.27 "Hg10 mi
8:54 PM65 °FSunny.No wind61%30.27 "Hg10 mi
9:54 PM58 °FSunny.No wind72%30.26 "Hg10 mi
10:54 PM56 °FClear.3 mph72%30.27 "Hg10 mi
11:54 PM55 °FClear.8 mph83%30.26 "Hg10 mi
Weather by CustomWeather, © 2014

See weather overviewHow to use our weather pages